When you browse on this site, cookies collect data to enhance your experience and personalize the content and advertising you see.
Visit our Privacy Policy to learn more. By continuing to use the site, you agree to this use of cookies and data.
  • In Hungary
  • List of Countries
  • For 7 days
  • Water Temperature
  • Satellite Maps
  • Weather Map
  • News
  • Weather Widgets
  • user-avatar
    Login

    Hourly Weather Ewinow

    Today, 26 May, Sunday

    Time Temperature Precipitation Wind Pressure Humidity
    00:00 +12°C° 0 mm 1 mps 733 mmHg 89%
    01:00 +12°C° 0 mm 1 mps 733 mmHg 89%
    02:00 +12°C° 0 mm 1 mps 733 mmHg 90%
    03:00 +12°C° 0 mm 1 mps 734 mmHg 91%
    04:00 +11°C° 0 mm 1 mps 734 mmHg 91%
    05:00 +13°C° 0 mm 2 mps 734 mmHg 88%
    06:00 +15°C° 0 mm 2 mps 734 mmHg 85%
    07:00 +16°C° 0 mm 2 mps 734 mmHg 81%
    08:00 +17°C° 0.3 mm 3 mps 734 mmHg 78%
    09:00 +19°C° 0.3 mm 3 mps 734 mmHg 74%
    10:00 +20°C° 0.3 mm 4 mps 734 mmHg 71%
    11:00 +20°C° 0.3 mm 4 mps 733 mmHg 68%
    12:00 +21°C° 0.3 mm 4 mps 733 mmHg 65%
    13:00 +22°C° 0.3 mm 4 mps 733 mmHg 62%
    14:00 +22°C° 0.1 mm 3 mps 733 mmHg 61%
    15:00 +22°C° 0.1 mm 3 mps 733 mmHg 60%
    16:00 +22°C° 0.1 mm 3 mps 733 mmHg 59%
    17:00 +21°C° 0.1 mm 2 mps 733 mmHg 66%
    18:00 +19°C° 0.1 mm 2 mps 732 mmHg 72%
    19:00 +18°C° 0.1 mm 1 mps 732 mmHg 78%
    20:00 +18°C° 0 mm 1 mps 733 mmHg 81%
    21:00 +16°C° 0 mm 1 mps 733 mmHg 84%
    22:00 +15°C° 0 mm 2 mps 733 mmHg 88%
    23:00 +14°C° 0 mm 2 mps 733 mmHg 89%

    Tomorrow, 27 May, Monday

    Time Temperature Precipitation Wind Pressure Humidity
    00:00 +14°C° 0 mm 2 mps 732 mmHg 91%
    01:00 +14°C° 0 mm 2 mps 732 mmHg 92%
    02:00 +13°C° 0 mm 2 mps 732 mmHg 92%
    03:00 +13°C° 0 mm 2 mps 732 mmHg 92%
    04:00 +13°C° 0 mm 2 mps 732 mmHg 92%
    05:00 +15°C° 0 mm 2 mps 732 mmHg 88%
    06:00 +17°C° 0 mm 2 mps 732 mmHg 84%
    07:00 +18°C° 0 mm 3 mps 732 mmHg 80%
    08:00 +20°C° 0.4 mm 3 mps 732 mmHg 76%
    09:00 +21°C° 0.4 mm 4 mps 732 mmHg 72%
    10:00 +22°C° 0.4 mm 5 mps 732 mmHg 68%
    11:00 +23°C° 0.4 mm 4 mps 732 mmHg 66%
    12:00 +23°C° 0.4 mm 4 mps 732 mmHg 64%
    13:00 +25°C° 0.4 mm 4 mps 732 mmHg 62%
    14:00 +25°C° 0.3 mm 3 mps 731 mmHg 61%
    15:00 +25°C° 0.3 mm 3 mps 731 mmHg 61%
    16:00 +25°C° 0.3 mm 2 mps 731 mmHg 60%
    17:00 +24°C° 0.2 mm 2 mps 731 mmHg 65%
    18:00 +22°C° 0.2 mm 1 mps 731 mmHg 71%
    19:00 +21°C° 0.2 mm 1 mps 730 mmHg 76%
    20:00 +20°C° 0.1 mm 1 mps 730 mmHg 78%
    21:00 +19°C° 0.1 mm 1 mps 730 mmHg 80%
    22:00 +19°C° 0.1 mm 1 mps 730 mmHg 82%
    23:00 +16°C° 0.4 mm 0 mps 730 mmHg 84%

    Day after tomorrow, 28 May, Tuesday

    Time Temperature Precipitation Wind Pressure Humidity
    00:00 +16°C° 0.4 mm 0 mps 729 mmHg 87%
    01:00 +16°C° 0.4 mm 0 mps 729 mmHg 90%
    02:00 +16°C° 0.3 mm 1 mps 729 mmHg 92%
    03:00 +16°C° 0.3 mm 1 mps 728 mmHg 94%
    04:00 +16°C° 0.3 mm 2 mps 728 mmHg 96%
    05:00 +17°C° 0 mm 3 mps 728 mmHg 92%
    06:00 +18°C° 0 mm 3 mps 727 mmHg 89%
    07:00 +19°C° 0 mm 4 mps 727 mmHg 85%
    08:00 +21°C° 0 mm 4 mps 727 mmHg 77%
    09:00 +22°C° 0 mm 4 mps 727 mmHg 70%
    10:00 +23°C° 0 mm 5 mps 727 mmHg 62%
    11:00 +23°C° 0.1 mm 4 mps 727 mmHg 62%
    12:00 +23°C° 0.1 mm 4 mps 726 mmHg 63%
    13:00 +24°C° 0.1 mm 3 mps 726 mmHg 64%
    14:00 +24°C° 1.2 mm 3 mps 726 mmHg 68%
    15:00 +24°C° 1.2 mm 3 mps 725 mmHg 72%
    16:00 +23°C° 1.2 mm 2 mps 725 mmHg 75%
    17:00 +21°C° 1.3 mm 2 mps 725 mmHg 78%
    18:00 +20°C° 1.3 mm 2 mps 725 mmHg 81%
    19:00 +19°C° 1.3 mm 2 mps 725 mmHg 84%
    20:00 +18°C° 0.3 mm 3 mps 725 mmHg 87%
    21:00 +17°C° 0.3 mm 4 mps 725 mmHg 91%
    22:00 +15°C° 0.3 mm 4 mps 726 mmHg 94%
    23:00 +14°C° 0 mm 4 mps 726 mmHg 94%

    29 May, Wednesday

    Time Temperature Precipitation Wind Pressure Humidity
    00:00 +13°C° 0 mm 4 mps 726 mmHg 94%
    01:00 +12°C° 0 mm 5 mps 727 mmHg 94%
    02:00 +11°C° 0 mm 4 mps 727 mmHg 94%
    03:00 +11°C° 0 mm 4 mps 727 mmHg 94%
    04:00 +10°C° 0 mm 3 mps 727 mmHg 93%
    05:00 +11°C° 0 mm 3 mps 728 mmHg 92%
    06:00 +11°C° 0 mm 3 mps 728 mmHg 91%
    07:00 +11°C° 0 mm 3 mps 729 mmHg 89%
    08:00 +12°C° 0 mm 3 mps 729 mmHg 85%
    09:00 +13°C° 0 mm 3 mps 729 mmHg 82%
    10:00 +14°C° 0 mm 3 mps 730 mmHg 78%
    11:00 +14°C° 0.8 mm 3 mps 730 mmHg 81%
    12:00 +13°C° 0.8 mm 3 mps 730 mmHg 84%
    13:00 +14°C° 0.8 mm 2 mps 730 mmHg 87%
    14:00 +13°C° 1.1 mm 3 mps 730 mmHg 89%
    15:00 +12°C° 1.1 mm 3 mps 730 mmHg 90%
    16:00 +12°C° 1.1 mm 3 mps 730 mmHg 92%
    17:00 +12°C° 1.1 mm 3 mps 731 mmHg 93%
    18:00 +11°C° 1.1 mm 4 mps 731 mmHg 94%
    19:00 +11°C° 1.1 mm 4 mps 731 mmHg 95%
    20:00 +11°C° 0.5 mm 4 mps 732 mmHg 95%
    21:00 +11°C° 0.5 mm 4 mps 732 mmHg 95%
    22:00 +11°C° 0.5 mm 4 mps 733 mmHg 95%
    23:00 +10°C° 0.2 mm 4 mps 733 mmHg 95%

    30 May, Thursday

    Time Temperature Precipitation Wind Pressure Humidity
    00:00 +10°C° 0.2 mm 4 mps 733 mmHg 95%
    01:00 +10°C° 0.2 mm 3 mps 733 mmHg 95%
    02:00 +10°C° 0.1 mm 3 mps 734 mmHg 96%
    03:00 +10°C° 0.1 mm 3 mps 734 mmHg 96%
    04:00 +10°C° 0.1 mm 3 mps 735 mmHg 96%
    05:00 +10°C° 0.2 mm 4 mps 735 mmHg 95%
    06:00 +9°C° 0.2 mm 5 mps 736 mmHg 93%
    07:00 +10°C° 0.2 mm 6 mps 736 mmHg 91%
    08:00 +10°C° 0.1 mm 6 mps 737 mmHg 88%
    09:00 +10°C° 0.1 mm 6 mps 737 mmHg 85%
    10:00 +12°C° 0.1 mm 5 mps 738 mmHg 81%
    11:00 +13°C° 0 mm 5 mps 738 mmHg 74%
    12:00 +14°C° 0 mm 5 mps 738 mmHg 66%
    13:00 +17°C° 0 mm 4 mps 739 mmHg 58%
    14:00 +17°C° 0 mm 4 mps 739 mmHg 58%
    15:00 +17°C° 0 mm 4 mps 739 mmHg 58%
    16:00 +17°C° 0 mm 4 mps 739 mmHg 57%
    17:00 +14°C° 0 mm 3 mps 739 mmHg 63%
    18:00 +14°C° 0 mm 2 mps 739 mmHg 68%
    19:00 +13°C° 0 mm 1 mps 739 mmHg 73%
    20:00 +12°C° 0 mm 1 mps 739 mmHg 75%
    21:00 +10°C° 0 mm 1 mps 740 mmHg 77%
    22:00 +8°C° 0 mm 0 mps 740 mmHg 79%
    23:00 +9°C° 0 mm 1 mps 740 mmHg 79%

    31 May, Friday

    Time Temperature Precipitation Wind Pressure Humidity
    00:00 +9°C° 0 mm 1 mps 740 mmHg 79%
    01:00 +8°C° 0 mm 2 mps 739 mmHg 79%
    02:00 +7°C° 0 mm 2 mps 739 mmHg 81%
    03:00 +7°C° 0 mm 2 mps 739 mmHg 83%
    04:00 +7°C° 0 mm 2 mps 739 mmHg 84%
    05:00 +9°C° 0 mm 3 mps 739 mmHg 80%
    06:00 +11°C° 0 mm 3 mps 739 mmHg 75%
    07:00 +13°C° 0 mm 3 mps 739 mmHg 71%
    08:00 +15°C° 0 mm 4 mps 739 mmHg 68%
    09:00 +18°C° 0 mm 4 mps 738 mmHg 65%
    10:00 +19°C° 0 mm 5 mps 738 mmHg 63%
    11:00 +20°C° 0.5 mm 5 mps 738 mmHg 65%
    12:00 +20°C° 0.5 mm 5 mps 738 mmHg 68%
    13:00 +20°C° 0.5 mm 5 mps 738 mmHg 70%
    14:00 +19°C° 0.7 mm 5 mps 738 mmHg 75%
    15:00 +17°C° 0.7 mm 5 mps 738 mmHg 79%
    16:00 +16°C° 0.7 mm 5 mps 739 mmHg 84%
    17:00 +15°C° 0.2 mm 5 mps 739 mmHg 86%
    18:00 +14°C° 0.2 mm 5 mps 740 mmHg 88%
    19:00 +12°C° 0.2 mm 5 mps 740 mmHg 90%
    20:00 +11°C° 0 mm 4 mps 741 mmHg 91%
    21:00 +9°C° 0 mm 3 mps 741 mmHg 92%
    22:00 +8°C° 0 mm 2 mps 742 mmHg 94%
    23:00 +7°C° 0 mm 2 mps 742 mmHg 93%
    Show more